Location: Bijele Vode
(45.2833°N, 16.2000°E)
Time: 06:49:09
(UTC+00:00)

Lacrosse 5 rocket - Pass Details

Date: 19 January 2021
Orbit: 465 x 630 km, 57.0° (Epoch: 04 March)

Event Time Altitude Azimuth Distance (km) Brightness Sun altitude
Exits shadow 03:47:04 18° 33° (NNE) 1,322 3.5 -28.0°
Drops below altitude 10° 03:49:01 10° 62° (ENE) 1,717 4.6 -27.6°
Sets 03:51:37 0° 81° (E) 2,569 6.0 -27.2°
